Regional Weather Roundup
Issued by NWS

Home | Current Version | Previous Version | Graphics & Text | Print | Product List | Glossary On
Versions: 1 2 3 4 5 6 7 8 9 10 11 12 13 14 15 16 17 18 19 20 21 22 23 24 25 26 27 28 29 30 31 32 33 34 35 36 37 38 39 40 41 42 43 44 45 46 47 48 49 50
000
ASUS43 KBIS 292102
RWRND

NORTH DAKOTA REGIONAL WEATHER ROUNDUP
NATIONAL WEATHER SERVICE BISMARCK ND
400 PM CDT SAT AUG 29 2015

NOTE: "FAIR" INDICATES FEW OR NO CLOUDS BELOW 12,000 FEET WITH NO
SIGNIFICANT WEATHER AND/OR OBSTRUCTIONS TO VISIBILITY.


NDZ001>003-009>011-017-292200-
NORTHWEST NORTH DAKOTA

CITY           SKY/WX    TMP DP  RH WIND       PRES   REMARKS
WILLISTON      FAIR      89  50  26 S3        29.83F HAZE
MINOT          PTSUNNY   94  49  21 S12       29.82F HAZE    HX  90
MINOT AFB      FAIR      92  51  24 SW9       29.80F
$$

NDZ018>021-031>035-040>046-292200-
SOUTHWEST NORTH DAKOTA

CITY           SKY/WX    TMP DP  RH WIND       PRES   REMARKS
BISMARCK       PTSUNNY   92  59  33 SE13      29.87F HAZE    HX  91
DICKINSON      FAIR      99  41  13 SW13G24   29.86F HX  94
GARRISON         N/A     93  55  27 S14       29.85F HX  91
HETTINGER ARPT FAIR      96  44  16 S10G20    29.92F HX  92
$$

NDZ004>008-012>016-024-026-027-054-292200-
NORTHEAST NORTH DAKOTA

CITY           SKY/WX    TMP DP  RH WIND       PRES   REMARKS
GRAND FORKS    FAIR      80  68  66 S9G18     29.86F
GRND FRKS AFB  FAIR      81  69  67 S13       29.86F
DEVILS LAKE    FAIR      82  64  54 SE12      29.85F
$$

NDZ022-023-025-028>030-036>039-047>053-292200-
SOUTHEAST NORTH DAKOTA

CITY           SKY/WX    TMP DP  RH WIND       PRES   REMARKS
FARGO          FAIR      84  68  58 S14       29.89F
JAMESTOWN      FAIR      84  70  62 VRB7      29.89F
$$



USA.gov is the U.S. government's official web portal to all federal, state and local government web resources and services.